ASA7016 PABR-PASC

Flight info

Callsign ASA7016
Flight time 0h 48m
Altitude 25000
Route BRW TUNDA OOSIK YIGUF SCC
Aircraft A320/M-SDE3FGHIRWY/LB1

Departure

Time 2026-04-22 19:26
Airport Wiley Post Will Rogers Memorial Airport (PABR)

Arrival

Time 2026-04-22 20:14
Airport Deadhorse Airport (PASC)
Time Latitude Longitude Altitude Speed Heading
2026-04-22 18:20 71.28734 -156.76991 48 ft 0 kts 334°
2026-04-22 19:18 71.28716 -156.76963 53 ft 4 kts 324°
2026-04-22 19:18 71.28699 -156.76905 54 ft 4 kts 288°
2026-04-22 19:19 71.28696 -156.76854 54 ft 0 kts 270°
2026-04-22 19:22 71.28696 -156.76895 54 ft 6 kts 270°
2026-04-22 19:22 71.28696 -156.76995 54 ft 6 kts 269°
2026-04-22 19:22 71.28695 -156.77236 55 ft 16 kts 269°
2026-04-22 19:23 71.28694 -156.77653 56 ft 21 kts 270°
2026-04-22 19:23 71.28693 -156.78138 58 ft 23 kts 269°
2026-04-22 19:23 71.28675 -156.78663 53 ft 25 kts 253°
2026-04-22 19:23 71.28628 -156.79176 57 ft 14 kts 255°
2026-04-22 19:24 71.28626 -156.79194 59 ft 0 kts 255°
2026-04-22 19:25 71.28625 -156.79209 61 ft 4 kts 255°
2026-04-22 19:25 71.28610 -156.79315 62 ft 7 kts 231°
2026-04-22 19:25 71.28567 -156.79359 56 ft 5 kts 177°
2026-04-22 19:25 71.28544 -156.79266 56 ft 7 kts 89°
2026-04-22 19:26 71.28547 -156.79080 62 ft 15 kts 90°
2026-04-22 19:26 71.28550 -156.77881 56 ft 96 kts 90°
2026-04-22 19:26 71.28558 -156.75133 93 ft 152 kts 88°
2026-04-22 19:26 71.28546 -156.71872 916 ft 150 kts 90°
2026-04-22 19:27 71.28529 -156.68517 1757 ft 160 kts 91°
2026-04-22 19:27 71.28389 -156.65063 2420 ft 163 kts 102°
2026-04-22 19:27 71.28038 -156.61659 3026 ft 168 kts 111°
2026-04-22 19:27 71.27587 -156.58228 3561 ft 175 kts 110°
2026-04-22 19:28 71.27132 -156.54618 4033 ft 185 kts 109°
2026-04-22 19:28 71.26660 -156.50781 4468 ft 196 kts 109°
2026-04-22 19:28 71.26170 -156.46677 4922 ft 208 kts 109°
2026-04-22 19:28 71.25661 -156.42303 5364 ft 225 kts 108°
2026-04-22 19:29 71.25116 -156.37505 5897 ft 242 kts 108°
2026-04-22 19:29 71.24561 -156.32496 6714 ft 249 kts 108°
2026-04-22 19:29 71.24001 -156.27339 7496 ft 257 kts 108°
2026-04-22 19:29 71.23435 -156.22033 8302 ft 261 kts 107°
2026-04-22 19:30 71.23060 -156.18467 8891 ft 263 kts 107°
2026-04-22 19:30 71.22314 -156.11266 10228 ft 261 kts 106°
2026-04-22 19:30 71.21764 -156.05871 11017 ft 265 kts 106°
2026-04-22 19:30 71.21216 -156.00335 11712 ft 272 kts 105°
2026-04-22 19:31 71.20675 -155.94638 12220 ft 285 kts 105°
2026-04-22 19:31 71.20042 -155.88551 12473 ft 308 kts 108°
2026-04-22 19:31 71.19262 -155.82097 12655 ft 330 kts 110°
2026-04-22 19:31 71.18421 -155.75372 13180 ft 339 kts 110°
2026-04-22 19:32 71.17574 -155.68510 13905 ft 343 kts 109°
2026-04-22 19:32 71.16737 -155.61540 14590 ft 346 kts 109°
2026-04-22 19:32 71.15914 -155.54522 15228 ft 349 kts 108°
2026-04-22 19:32 71.15096 -155.47421 15873 ft 352 kts 108°
2026-04-22 19:33 71.14274 -155.40246 16510 ft 355 kts 108°
2026-04-22 19:33 71.13449 -155.33039 17122 ft 358 kts 108°
2026-04-22 19:33 71.12613 -155.25769 17745 ft 361 kts 108°
2026-04-22 19:33 71.11765 -155.18451 18334 ft 363 kts 109°
2026-04-22 19:34 71.10904 -155.11069 18895 ft 366 kts 109°
2026-04-22 19:34 71.10035 -155.03648 19394 ft 369 kts 109°
2026-04-22 19:34 71.09152 -154.96149 19895 ft 372 kts 109°
2026-04-22 19:34 71.08264 -154.88619 20385 ft 375 kts 109°
2026-04-22 19:35 71.07367 -154.81042 20872 ft 378 kts 109°
2026-04-22 19:35 71.06457 -154.73412 21347 ft 381 kts 109°
2026-04-22 19:35 71.05847 -154.68327 21664 ft 383 kts 109°
2026-04-22 19:35 71.04602 -154.57985 22256 ft 388 kts 109°
2026-04-22 19:36 71.03657 -154.50180 22691 ft 391 kts 109°
2026-04-22 19:36 71.02702 -154.42323 23141 ft 394 kts 110°
2026-04-22 19:36 71.01736 -154.34414 23574 ft 397 kts 110°
2026-04-22 19:36 71.00758 -154.26457 24004 ft 400 kts 110°
2026-04-22 19:37 70.99768 -154.18451 24340 ft 403 kts 110°
2026-04-22 19:37 70.98782 -154.10481 24647 ft 406 kts 110°
2026-04-22 19:37 70.97773 -154.02349 24942 ft 410 kts 110°
2026-04-22 19:37 70.96737 -153.94044 25240 ft 414 kts 110°
2026-04-22 19:38 70.95717 -153.85888 25451 ft 417 kts 110°
2026-04-22 19:38 70.94668 -153.77523 25499 ft 425 kts 110°
2026-04-22 19:38 70.93595 -153.69052 25499 ft 428 kts 111°
2026-04-22 19:38 70.92509 -153.60529 25499 ft 430 kts 111°
2026-04-22 19:39 70.91418 -153.52004 25499 ft 431 kts 111°
2026-04-22 19:39 70.90319 -153.43481 25499 ft 431 kts 111°
2026-04-22 19:39 70.89217 -153.34966 25499 ft 431 kts 111°
2026-04-22 19:39 70.88119 -153.26449 25499 ft 431 kts 111°
2026-04-22 19:40 70.87407 -153.20787 25501 ft 431 kts 110°
2026-04-22 19:40 70.86352 -153.12227 25498 ft 431 kts 110°
2026-04-22 19:40 70.85305 -153.03660 25498 ft 431 kts 110°
2026-04-22 19:40 70.84254 -152.95105 25498 ft 431 kts 110°
2026-04-22 19:41 70.83196 -152.86582 25500 ft 431 kts 110°
2026-04-22 19:41 70.82123 -152.78036 25500 ft 431 kts 110°
2026-04-22 19:41 70.81043 -152.69521 25499 ft 431 kts 111°
2026-04-22 19:41 70.79954 -152.61004 25498 ft 432 kts 111°
2026-04-22 19:42 70.78861 -152.52510 25491 ft 432 kts 111°
2026-04-22 19:42 70.77764 -152.44013 25488 ft 432 kts 111°
2026-04-22 19:42 70.76668 -152.35512 25488 ft 433 kts 111°
2026-04-22 19:42 70.75586 -152.27114 25486 ft 433 kts 111°
2026-04-22 19:43 70.73355 -152.10013 25487 ft 433 kts 111°
2026-04-22 19:43 70.72238 -152.01557 25489 ft 434 kts 111°
2026-04-22 19:43 70.71113 -151.93081 25490 ft 434 kts 111°
2026-04-22 19:44 70.70002 -151.84735 25489 ft 434 kts 111°
2026-04-22 19:44 70.68873 -151.76280 25495 ft 434 kts 111°
2026-04-22 19:44 70.67739 -151.67812 25433 ft 435 kts 111°
2026-04-22 19:44 70.66605 -151.59381 25193 ft 434 kts 112°
2026-04-22 19:45 70.65464 -151.50946 24945 ft 433 kts 112°
2026-04-22 19:45 70.64322 -151.42560 24704 ft 431 kts 112°
2026-04-22 19:45 70.63180 -151.34215 24468 ft 428 kts 112°
2026-04-22 19:45 70.62046 -151.25970 24222 ft 425 kts 112°
2026-04-22 19:46 70.60911 -151.17753 23961 ft 422 kts 112°
2026-04-22 19:46 70.59786 -151.09619 23667 ft 420 kts 112°
2026-04-22 19:46 70.58664 -151.01535 23382 ft 418 kts 112°
2026-04-22 19:46 70.57547 -150.93505 23092 ft 415 kts 112°
2026-04-22 19:47 70.56431 -150.85531 22802 ft 413 kts 112°
2026-04-22 19:47 70.55318 -150.77620 22524 ft 411 kts 112°
2026-04-22 19:47 70.54205 -150.69727 22241 ft 409 kts 112°
2026-04-22 19:47 70.53113 -150.62005 21980 ft 407 kts 112°
2026-04-22 19:48 70.51991 -150.54114 21699 ft 407 kts 112°
2026-04-22 19:48 70.50893 -150.46437 21431 ft 405 kts 112°
2026-04-22 19:48 70.49770 -150.38617 21158 ft 403 kts 112°
2026-04-22 19:48 70.48676 -150.31028 20892 ft 401 kts 112°
2026-04-22 19:49 70.47572 -150.23392 20625 ft 399 kts 112°
2026-04-22 19:49 70.46469 -150.15802 20360 ft 397 kts 113°
2026-04-22 19:49 70.45363 -150.08257 20093 ft 395 kts 113°
2026-04-22 19:49 70.44262 -150.00772 19826 ft 391 kts 113°
2026-04-22 19:50 70.43180 -149.93410 19316 ft 385 kts 113°
2026-04-22 19:50 70.42111 -149.86161 18800 ft 379 kts 113°
2026-04-22 19:50 70.41051 -149.79020 18014 ft 378 kts 113°
2026-04-22 19:50 70.39980 -149.71820 17278 ft 378 kts 113°
2026-04-22 19:51 70.38923 -149.64717 16825 ft 371 kts 113°
2026-04-22 19:51 70.37895 -149.57838 16357 ft 365 kts 113°
2026-04-22 19:51 70.36869 -149.51016 15887 ft 360 kts 114°
2026-04-22 19:51 70.35847 -149.44255 15415 ft 355 kts 114°
2026-04-22 19:52 70.34837 -149.37606 14937 ft 352 kts 114°
2026-04-22 19:52 70.33832 -149.31019 14445 ft 349 kts 114°
2026-04-22 19:52 70.32832 -149.24481 13915 ft 345 kts 114°
2026-04-22 19:52 70.31851 -149.18015 13398 ft 342 kts 112°
2026-04-22 19:53 70.31148 -149.11354 12889 ft 337 kts 102°
2026-04-22 19:53 70.30839 -149.04498 12359 ft 334 kts 94°
2026-04-22 19:53 70.30665 -148.97662 11832 ft 331 kts 94°
2026-04-22 19:53 70.30482 -148.90904 11288 ft 329 kts 95°
2026-04-22 19:54 70.30295 -148.84170 10944 ft 322 kts 95°
2026-04-22 19:54 70.30112 -148.77697 10807 ft 309 kts 95°
2026-04-22 19:54 70.29934 -148.71456 10675 ft 298 kts 95°
2026-04-22 19:54 70.29763 -148.65457 10544 ft 287 kts 95°
2026-04-22 19:55 70.29596 -148.59634 10288 ft 281 kts 95°
2026-04-22 19:55 70.29432 -148.53978 10009 ft 277 kts 95°
2026-04-22 19:55 70.29263 -148.48246 9836 ft 275 kts 95°
2026-04-22 19:55 70.29095 -148.42608 9694 ft 275 kts 95°
2026-04-22 19:56 70.28924 -148.36979 9553 ft 274 kts 95°
2026-04-22 19:56 70.28751 -148.31348 9412 ft 274 kts 95°
2026-04-22 19:56 70.28578 -148.25749 9138 ft 274 kts 95°
2026-04-22 19:56 70.28406 -148.20198 8700 ft 274 kts 95°
2026-04-22 19:57 70.28228 -148.14597 8274 ft 273 kts 95°
2026-04-22 19:57 70.28048 -148.09022 7937 ft 270 kts 95°
2026-04-22 19:57 70.27866 -148.03451 7443 ft 266 kts 95°
2026-04-22 19:57 70.27691 -147.98046 6935 ft 261 kts 95°
2026-04-22 19:58 70.27519 -147.92778 6471 ft 259 kts 95°
2026-04-22 19:58 70.27345 -147.87497 6040 ft 257 kts 95°
2026-04-22 19:58 70.27167 -147.82249 5627 ft 257 kts 95°
2026-04-22 19:58 70.26988 -147.76999 5202 ft 256 kts 95°
2026-04-22 19:59 70.26810 -147.71809 4824 ft 252 kts 95°
2026-04-22 20:00 70.20965 -147.65159 2852 ft 241 kts 264°
2026-04-22 20:00 70.20992 -147.69957 2562 ft 234 kts 274°
2026-04-22 20:01 70.21083 -147.74671 2299 ft 227 kts 274°
2026-04-22 20:01 70.21164 -147.79089 2216 ft 205 kts 273°
2026-04-22 20:01 70.21233 -147.83094 2181 ft 187 kts 273°
2026-04-22 20:01 70.21295 -147.86772 2140 ft 171 kts 273°
2026-04-22 20:02 70.21350 -147.90128 2099 ft 156 kts 273°
2026-04-22 20:02 70.21398 -147.93142 2065 ft 140 kts 273°
2026-04-22 20:02 70.21442 -147.95954 2020 ft 135 kts 273°
2026-04-22 20:02 70.21484 -147.98695 1984 ft 133 kts 273°
2026-04-22 20:03 70.21525 -148.01417 1945 ft 132 kts 273°
2026-04-22 20:03 70.21559 -148.04099 1913 ft 132 kts 272°
2026-04-22 20:03 70.21582 -148.06802 1891 ft 132 kts 271°
2026-04-22 20:03 70.21605 -148.09506 1856 ft 132 kts 272°
2026-04-22 20:04 70.21631 -148.12209 1824 ft 131 kts 272°
2026-04-22 20:04 70.21660 -148.14909 1796 ft 131 kts 272°
2026-04-22 20:04 70.21667 -148.17614 1772 ft 131 kts 269°
2026-04-22 20:04 70.21600 -148.20306 1692 ft 132 kts 263°
2026-04-22 20:05 70.21455 -148.22967 1598 ft 131 kts 259°
2026-04-22 20:05 70.21282 -148.25599 1513 ft 131 kts 261°
2026-04-22 20:05 70.21146 -148.28227 1360 ft 129 kts 260°
2026-04-22 20:05 70.20966 -148.30824 1170 ft 128 kts 258°
2026-04-22 20:06 70.20777 -148.33380 915 ft 127 kts 258°
2026-04-22 20:06 70.20587 -148.35864 788 ft 125 kts 255°
2026-04-22 20:06 70.20295 -148.38257 604 ft 123 kts 247°
2026-04-22 20:06 70.20026 -148.40644 443 ft 123 kts 253°
2026-04-22 20:07 70.19793 -148.43050 204 ft 121 kts 253°
2026-04-22 20:07 70.19566 -148.45525 211 ft 138 kts 255°
2026-04-22 20:07 70.19325 -148.48509 697 ft 164 kts 256°
2026-04-22 20:07 70.19055 -148.52017 1211 ft 186 kts 256°
2026-04-22 20:08 70.18525 -148.55646 1815 ft 201 kts 233°
2026-04-22 20:08 70.17437 -148.58243 2327 ft 205 kts 202°
2026-04-22 20:08 70.16030 -148.58888 2858 ft 209 kts 172°
2026-04-22 20:08 70.14677 -148.57408 3195 ft 210 kts 141°
2026-04-22 20:09 70.13800 -148.54086 3449 ft 208 kts 111°
2026-04-22 20:09 70.13403 -148.50008 3629 ft 208 kts 99°
2026-04-22 20:09 70.13274 -148.45784 3780 ft 208 kts 91°
2026-04-22 20:09 70.13301 -148.41540 3836 ft 208 kts 86°
2026-04-22 20:10 70.13480 -148.37335 3782 ft 208 kts 79°
2026-04-22 20:10 70.13844 -148.33197 3679 ft 211 kts 70°
2026-04-22 20:10 70.14429 -148.29296 3545 ft 206 kts 64°
2026-04-22 20:10 70.15089 -148.25643 3462 ft 199 kts 60°
2026-04-22 20:11 70.15813 -148.22228 3339 ft 195 kts 54°
2026-04-22 20:11 70.16730 -148.19458 3102 ft 187 kts 34°
2026-04-22 20:11 70.17913 -148.17872 2755 ft 186 kts 10°
2026-04-22 20:11 70.19185 -148.18104 2288 ft 186 kts 342°
2026-04-22 20:12 70.20283 -148.20235 1666 ft 193 kts 311°
2026-04-22 20:12 70.20959 -148.23487 1459 ft 178 kts 288°
2026-04-22 20:12 70.21110 -148.25755 1409 ft 162 kts 274°
2026-04-22 20:12 70.21011 -148.29738 1289 ft 132 kts 261°
2026-04-22 20:13 70.20842 -148.32331 988 ft 126 kts 258°
2026-04-22 20:13 70.20669 -148.34788 808 ft 118 kts 257°
2026-04-22 20:13 70.20502 -148.37140 526 ft 122 kts 263°
2026-04-22 20:13 70.20283 -148.39585 430 ft 117 kts 253°
2026-04-22 20:14 70.20071 -148.41832 212 ft 112 kts 253°
2026-04-22 20:14 70.19880 -148.43980 71 ft 102 kts 253°
2026-04-22 20:14 70.19731 -148.45564 68 ft 59 kts 256°
2026-04-22 20:14 70.19671 -148.46247 61 ft 19 kts 255°
2026-04-22 20:15 70.19730 -148.46408 58 ft 18 kts 43°
2026-04-22 20:15 70.19779 -148.46051 62 ft 19 kts 53°
2026-04-22 20:15 70.19848 -148.45848 61 ft 0 kts 71°